TimeCST,TemperatureF,Dew PointF,Humidity,Sea Level PressureIn,VisibilityMPH,Wind Direction,Wind SpeedMPH,Gust SpeedMPH,PrecipitationIn,Events,Conditions,WindDirDegrees,DateUTC
12:13 AM,23.0,21.2,93,30.46,5.0,NNW,16.1,25.3,N/A,Snow,Light Snow,340,2013-11-22 06:13:00
12:33 AM,23.0,21.2,93,30.46,5.0,NNW,11.5,19.6,N/A,Snow,Light Snow,340,2013-11-22 06:33:00
12:53 AM,21.2,19.4,93,30.46,4.0,NNW,13.8,18.4,N/A,Snow,Light Snow,340,2013-11-22 06:53:00
1:13 AM,21.2,19.4,93,30.48,4.0,NNW,13.8,18.4,N/A,Snow,Light Snow,330,2013-11-22 07:13:00
1:33 AM,21.2,19.4,93,30.48,5.0,NNW,13.8,17.3,N/A,Snow,Light Snow,340,2013-11-22 07:33:00
1:53 AM,21.2,19.4,93,30.47,7.0,NNW,9.2,16.1,N/A,Snow,Light Snow,340,2013-11-22 07:53:00
2:13 AM,21.2,17.6,86,30.48,10.0,NNW,12.7,18.4,N/A,,Clear,340,2013-11-22 08:13:00
2:33 AM,21.2,17.6,86,30.48,10.0,NNW,13.8,18.4,N/A,,Scattered Clouds,330,2013-11-22 08:33:00
2:53 AM,21.2,15.8,80,30.48,10.0,NNW,10.4,18.4,N/A,,Mostly Cloudy,330,2013-11-22 08:53:00
3:13 AM,21.2,15.8,80,30.49,10.0,NW,9.2,-,N/A,,Mostly Cloudy,320,2013-11-22 09:13:00
3:33 AM,19.4,15.8,86,30.49,10.0,NNW,6.9,-,N/A,,Scattered Clouds,330,2013-11-22 09:33:00
3:53 AM,19.4,15.8,86,30.49,10.0,NNW,10.4,-,N/A,,Clear,330,2013-11-22 09:53:00
4:13 AM,19.4,15.8,86,30.49,10.0,NW,10.4,16.1,N/A,,Clear,320,2013-11-22 10:13:00
4:33 AM,19.4,15.8,86,30.50,10.0,NW,9.2,-,N/A,,Clear,310,2013-11-22 10:33:00
4:53 AM,17.6,14.0,86,30.51,10.0,NW,4.6,-,N/A,,Clear,310,2013-11-22 10:53:00
5:13 AM,17.6,14.0,86,30.51,10.0,NW,6.9,-,N/A,,Clear,320,2013-11-22 11:13:00
5:33 AM,15.8,12.2,86,30.52,10.0,NW,4.6,-,N/A,,Clear,310,2013-11-22 11:33:00
5:53 AM,15.8,12.2,86,30.52,10.0,WNW,3.5,-,N/A,,Clear,300,2013-11-22 11:53:00
6:13 AM,12.2,10.4,92,30.52,10.0,WNW,4.6,-,N/A,,Clear,300,2013-11-22 12:13:00
6:33 AM,12.2,10.4,92,30.54,10.0,WNW,5.8,-,N/A,,Clear,300,2013-11-22 12:33:00
6:53 AM,12.2,10.4,92,30.53,10.0,WNW,4.6,-,N/A,,Clear,300,2013-11-22 12:53:00
7:13 AM,12.2,10.4,92,30.55,10.0,WNW,6.9,-,N/A,,Clear,300,2013-11-22 13:13:00
7:33 AM,10.4,10.4,100,30.54,10.0,NW,5.8,-,N/A,,Clear,310,2013-11-22 13:33:00
7:53 AM,12.2,10.4,92,30.53,10.0,Calm,Calm,-,N/A,,Clear,0,2013-11-22 13:53:00
8:13 AM,12.2,10.4,92,30.53,10.0,WNW,3.5,-,N/A,,Clear,300,2013-11-22 14:13:00
8:33 AM,12.2,10.4,92,30.53,10.0,WNW,4.6,-,N/A,,Clear,300,2013-11-22 14:33:00
8:53 AM,14.0,10.4,86,30.53,10.0,WNW,3.5,-,N/A,,Clear,300,2013-11-22 14:53:00
9:13 AM,15.8,10.4,79,30.56,10.0,West,6.9,-,N/A,,Clear,280,2013-11-22 15:13:00
9:33 AM,14.0,10.4,86,30.57,10.0,NW,5.8,16.1,N/A,,Clear,310,2013-11-22 15:33:00
9:53 AM,15.8,12.2,86,30.57,10.0,NW,4.6,-,N/A,,Clear,310,2013-11-22 15:53:00
10:13 AM,17.6,12.2,79,30.57,10.0,WNW,4.6,-,N/A,,Clear,300,2013-11-22 16:13:00
10:33 AM,17.6,12.2,79,30.57,10.0,West,6.9,-,N/A,,Clear,280,2013-11-22 16:33:00
10:53 AM,17.6,12.2,79,30.57,10.0,NW,4.6,-,N/A,,Clear,310,2013-11-22 16:53:00
11:13 AM,19.4,12.2,74,30.56,10.0,NW,5.8,-,N/A,,Clear,310,2013-11-22 17:13:00
11:33 AM,21.2,10.4,63,30.55,10.0,WNW,8.1,-,N/A,,Clear,300,2013-11-22 17:33:00
11:53 AM,21.2,12.2,68,30.55,10.0,WNW,5.8,-,N/A,,Clear,300,2013-11-22 17:53:00
12:13 PM,23.0,12.2,63,30.55,10.0,West,6.9,-,N/A,,Clear,280,2013-11-22 18:13:00
12:33 PM,24.8,12.2,59,30.55,10.0,West,8.1,-,N/A,,Clear,270,2013-11-22 18:33:00
12:53 PM,26.6,12.2,55,30.55,10.0,WSW,5.8,-,N/A,,Clear,250,2013-11-22 18:53:00
1:13 PM,26.6,10.4,51,30.54,10.0,WSW,9.2,-,N/A,,Clear,240,2013-11-22 19:13:00
1:33 PM,26.6,10.4,51,30.52,10.0,SW,8.1,-,N/A,,Clear,220,2013-11-22 19:33:00
1:53 PM,26.6,10.4,51,30.51,10.0,SW,8.1,-,N/A,,Clear,220,2013-11-22 19:53:00
2:13 PM,28.4,10.4,47,30.50,10.0,SW,10.4,-,N/A,,Clear,230,2013-11-22 20:13:00
2:33 PM,28.4,10.4,47,30.49,10.0,SW,12.7,-,N/A,,Clear,230,2013-11-22 20:33:00
2:53 PM,28.4,12.2,51,30.49,10.0,SW,9.2,-,N/A,,Clear,220,2013-11-22 20:53:00
3:13 PM,28.4,12.2,51,30.48,10.0,SW,8.1,16.1,N/A,,Clear,230,2013-11-22 21:13:00
3:33 PM,28.4,12.2,51,30.47,10.0,SW,10.4,-,N/A,,Clear,230,2013-11-22 21:33:00
3:53 PM,28.4,12.2,51,30.48,10.0,SW,9.2,-,N/A,,Clear,230,2013-11-22 21:53:00
4:13 PM,28.4,14.0,55,30.48,10.0,SW,6.9,-,N/A,,Clear,230,2013-11-22 22:13:00
4:33 PM,28.4,14.0,55,30.48,10.0,SW,6.9,-,N/A,,Clear,230,2013-11-22 22:33:00
4:53 PM,28.4,14.0,55,30.48,10.0,WSW,6.9,-,N/A,,Clear,250,2013-11-22 22:53:00
5:13 PM,28.4,12.2,51,30.47,10.0,WSW,9.2,-,N/A,,Clear,250,2013-11-22 23:13:00
5:33 PM,26.6,12.2,55,30.47,10.0,WSW,10.4,16.1,N/A,,Clear,250,2013-11-22 23:33:00
5:53 PM,26.6,10.4,51,30.47,10.0,WSW,10.4,-,N/A,,Clear,250,2013-11-22 23:53:00
6:13 PM,26.6,12.2,55,30.47,10.0,WSW,10.4,-,N/A,,Clear,250,2013-11-23 00:13:00
6:33 PM,24.8,10.4,54,30.47,10.0,WSW,10.4,-,N/A,,Clear,250,2013-11-23 00:33:00
6:53 PM,24.8,10.4,54,30.47,10.0,WSW,9.2,-,N/A,,Clear,250,2013-11-23 00:53:00
7:13 PM,24.8,10.4,54,30.47,10.0,WSW,12.7,18.4,N/A,,Clear,250,2013-11-23 01:13:00
7:33 PM,24.8,12.2,59,30.48,10.0,West,10.4,-,N/A,,Clear,270,2013-11-23 01:33:00
7:53 PM,24.8,12.2,59,30.49,10.0,WNW,9.2,18.4,N/A,,Clear,290,2013-11-23 01:53:00
8:13 PM,23.0,12.2,63,30.50,10.0,WNW,8.1,-,N/A,,Clear,300,2013-11-23 02:13:00
8:33 PM,23.0,12.2,63,30.50,10.0,NW,10.4,17.3,N/A,,Clear,310,2013-11-23 02:33:00
8:53 PM,21.2,14.0,74,30.51,10.0,NW,10.4,18.4,N/A,,Scattered Clouds,310,2013-11-23 02:53:00
9:13 PM,21.2,12.2,68,30.51,10.0,NW,8.1,18.4,N/A,,Clear,310,2013-11-23 03:13:00
9:33 PM,21.2,14.0,74,30.51,10.0,NW,10.4,17.3,N/A,,Clear,310,2013-11-23 03:33:00
9:53 PM,21.2,14.0,74,30.52,10.0,NW,9.2,-,N/A,,Clear,310,2013-11-23 03:53:00
10:13 PM,21.2,15.8,80,30.52,10.0,NW,8.1,16.1,N/A,,Mostly Cloudy,320,2013-11-23 04:13:00
10:33 PM,21.2,15.8,80,30.53,10.0,NNW,15.0,24.2,N/A,,Mostly Cloudy,330,2013-11-23 04:33:00
10:53 PM,19.4,10.4,68,30.53,10.0,NNW,15.0,23.0,N/A,,Scattered Clouds,330,2013-11-23 04:53:00
11:13 PM,19.4,10.4,68,30.54,10.0,NW,11.5,18.4,N/A,,Clear,320,2013-11-23 05:13:00
11:33 PM,17.6,10.4,73,30.54,10.0,NW,12.7,20.7,N/A,,Scattered Clouds,320,2013-11-23 05:33:00
11:53 PM,17.6,6.8,63,30.55,10.0,NW,12.7,23.0,N/A,,Clear,320,2013-11-23 05:53:00